EN

Hourly Weather Abadia

Today, 1 December, Tuesday

Time Temperature Precipitation Wind Pressure Humidity
00:00 +10°C° 0 mm 1 mps 726 mmHg 76%
01:00 +10°C° 0 mm 1 mps 726 mmHg 75%
02:00 +10°C° 0 mm 1 mps 726 mmHg 74%
03:00 +10°C° 0 mm 1 mps 726 mmHg 73%
04:00 +10°C° 0 mm 1 mps 726 mmHg 74%
05:00 +9°C° 0 mm 1 mps 726 mmHg 74%
06:00 +9°C° 0 mm 1 mps 726 mmHg 74%
07:00 +10°C° 0 mm 1 mps 726 mmHg 72%
08:00 +11°C° 0 mm 1 mps 726 mmHg 70%
09:00 +11°C° 0 mm 1 mps 726 mmHg 67%
10:00 +13°C° 0 mm 1 mps 726 mmHg 62%
11:00 +15°C° 0 mm 1 mps 726 mmHg 56%
12:00 +16°C° 0 mm 1 mps 726 mmHg 50%
13:00 +16°C° 0 mm 1 mps 725 mmHg 50%
14:00 +16°C° 0 mm 2 mps 725 mmHg 49%
15:00 +16°C° 0 mm 2 mps 724 mmHg 49%
16:00 +14°C° 0 mm 2 mps 724 mmHg 51%
17:00 +12°C° 0 mm 2 mps 724 mmHg 53%
18:00 +9°C° 0 mm 3 mps 724 mmHg 55%
19:00 +9°C° 0 mm 2 mps 724 mmHg 55%
20:00 +8°C° 0 mm 2 mps 724 mmHg 55%
21:00 +8°C° 0 mm 2 mps 724 mmHg 56%
22:00 +8°C° 0 mm 2 mps 723 mmHg 56%
23:00 +8°C° 0 mm 2 mps 723 mmHg 57%

Tomorrow, 2 December, Wednesday

Time Temperature Precipitation Wind Pressure Humidity
00:00 +8°C° 0 mm 2 mps 723 mmHg 57%
01:00 +8°C° 0 mm 2 mps 723 mmHg 59%
02:00 +8°C° 0 mm 2 mps 723 mmHg 61%
03:00 +7°C° 0 mm 2 mps 722 mmHg 63%
04:00 +7°C° 0 mm 2 mps 722 mmHg 64%
05:00 +7°C° 0 mm 2 mps 722 mmHg 64%
06:00 +7°C° 0 mm 2 mps 721 mmHg 65%
07:00 +8°C° 0 mm 2 mps 722 mmHg 65%
08:00 +8°C° 0 mm 2 mps 722 mmHg 65%
09:00 +9°C° 0 mm 3 mps 722 mmHg 65%
10:00 +10°C° 0 mm 3 mps 722 mmHg 63%
11:00 +11°C° 0 mm 3 mps 722 mmHg 60%
12:00 +12°C° 0 mm 3 mps 722 mmHg 58%
13:00 +12°C° 0 mm 3 mps 721 mmHg 58%
14:00 +12°C° 0 mm 4 mps 721 mmHg 57%
15:00 +12°C° 0 mm 4 mps 720 mmHg 57%
16:00 +10°C° 0 mm 4 mps 721 mmHg 60%
17:00 +8°C° 0 mm 3 mps 721 mmHg 63%
18:00 +7°C° 0 mm 3 mps 721 mmHg 65%
19:00 +5°C° 0 mm 3 mps 721 mmHg 66%
20:00 +5°C° 0 mm 3 mps 722 mmHg 67%
21:00 +5°C° 0 mm 2 mps 722 mmHg 68%
22:00 +5°C° 0 mm 2 mps 722 mmHg 68%
23:00 +5°C° 0 mm 2 mps 722 mmHg 68%

Day after tomorrow, 3 December, Thursday

Time Temperature Precipitation Wind Pressure Humidity
00:00 +4°C° 0 mm 2 mps 722 mmHg 67%
01:00 +4°C° 0 mm 2 mps 722 mmHg 67%
02:00 +4°C° 0 mm 2 mps 722 mmHg 67%
03:00 +4°C° 0 mm 2 mps 722 mmHg 67%
04:00 +3°C° 0 mm 2 mps 721 mmHg 67%
05:00 +4°C° 0 mm 1 mps 721 mmHg 67%
06:00 +4°C° 0 mm 1 mps 721 mmHg 67%
07:00 +5°C° 0 mm 1 mps 720 mmHg 65%
08:00 +5°C° 0 mm 0 mps 720 mmHg 63%
09:00 +6°C° 0 mm 0 mps 720 mmHg 62%
10:00 +7°C° 0 mm 0 mps 720 mmHg 58%
11:00 +10°C° 0 mm 1 mps 719 mmHg 55%
12:00 +11°C° 0 mm 1 mps 719 mmHg 51%
13:00 +10°C° 0 mm 2 mps 718 mmHg 53%
14:00 +10°C° 0 mm 2 mps 717 mmHg 54%
15:00 +10°C° 0 mm 2 mps 716 mmHg 56%
16:00 +9°C° 0 mm 2 mps 716 mmHg 63%
17:00 +7°C° 0 mm 2 mps 716 mmHg 70%
18:00 +6°C° 0 mm 2 mps 716 mmHg 77%
19:00 +6°C° 0 mm 2 mps 715 mmHg 78%
20:00 +6°C° 0 mm 2 mps 715 mmHg 79%
21:00 +7°C° 0 mm 2 mps 715 mmHg 80%
22:00 +7°C° 0.1 mm 2 mps 714 mmHg 83%
23:00 +5°C° 0.1 mm 3 mps 714 mmHg 86%

4 December, Friday

Time Temperature Precipitation Wind Pressure Humidity
00:00 +5°C° 0.1 mm 3 mps 713 mmHg 90%
01:00 +5°C° 0.4 mm 3 mps 712 mmHg 90%
02:00 +6°C° 0.4 mm 4 mps 712 mmHg 91%
03:00 +6°C° 0.4 mm 4 mps 711 mmHg 92%
04:00 +6°C° 0.7 mm 4 mps 711 mmHg 92%
05:00 +6°C° 0.7 mm 4 mps 710 mmHg 93%
06:00 +6°C° 0.7 mm 4 mps 710 mmHg 93%
07:00 +5°C° 0.6 mm 4 mps 710 mmHg 92%
08:00 +5°C° 0.6 mm 4 mps 710 mmHg 91%
09:00 +5°C° 0.6 mm 4 mps 710 mmHg 90%
10:00 +4°C° 0.8 mm 4 mps 710 mmHg 88%
11:00 +4°C° 0.8 mm 4 mps 710 mmHg 86%
12:00 +4°C° 0.8 mm 4 mps 710 mmHg 84%
13:00 +4°C° 0.5 mm 4 mps 710 mmHg 84%
14:00 +4°C° 0.5 mm 4 mps 710 mmHg 85%
15:00 +4°C° 0.5 mm 4 mps 710 mmHg 85%
16:00 +3°C° 0.2 mm 4 mps 710 mmHg 87%
17:00 +2°C° 0.2 mm 3 mps 710 mmHg 88%
18:00 +2°C° 0.2 mm 2 mps 711 mmHg 90%
19:00 +1°C° 0 mm 2 mps 711 mmHg 90%
20:00 +1°C° 0 mm 2 mps 712 mmHg 90%
21:00 +1°C° 0 mm 2 mps 712 mmHg 90%
22:00 +1°C° 0 mm 2 mps 712 mmHg 91%
23:00 +1°C° 0 mm 2 mps 713 mmHg 91%

5 December, Saturday

Time Temperature Precipitation Wind Pressure Humidity
00:00 +2°C° 0 mm 2 mps 713 mmHg 91%
01:00 +1°C° 0 mm 2 mps 713 mmHg 91%
02:00 +1°C° 0 mm 2 mps 713 mmHg 92%
03:00 +1°C° 0 mm 2 mps 714 mmHg 92%
04:00 +1°C° 0 mm 2 mps 714 mmHg 91%
05:00 +1°C° 0 mm 2 mps 715 mmHg 91%
06:00 +1°C° 0 mm 3 mps 715 mmHg 90%
07:00 +1°C° 0 mm 3 mps 715 mmHg 88%
08:00 +2°C° 0 mm 2 mps 716 mmHg 87%
09:00 +2°C° 0 mm 2 mps 716 mmHg 85%
10:00 +2°C° 0 mm 3 mps 717 mmHg 81%
11:00 +4°C° 0 mm 3 mps 717 mmHg 76%
12:00 +5°C° 0 mm 4 mps 717 mmHg 72%
13:00 +5°C° 0 mm 4 mps 717 mmHg 71%
14:00 +5°C° 0 mm 4 mps 717 mmHg 70%
15:00 +5°C° 0 mm 4 mps 717 mmHg 69%
16:00 +4°C° 0 mm 4 mps 717 mmHg 75%
17:00 +3°C° 0 mm 3 mps 718 mmHg 80%
18:00 +2°C° 0 mm 3 mps 718 mmHg 86%
19:00 +3°C° 0 mm 2 mps 718 mmHg 88%
20:00 +2°C° 0 mm 2 mps 719 mmHg 89%
21:00 +2°C° 0 mm 2 mps 719 mmHg 91%
22:00 +2°C° 0 mm 2 mps 720 mmHg 91%
23:00 +2°C° 0 mm 2 mps 720 mmHg 92%

6 December, Sunday

Time Temperature Precipitation Wind Pressure Humidity
00:00 +1°C° 0 mm 2 mps 720 mmHg 92%
01:00 +2°C° 0 mm 2 mps 720 mmHg 92%
02:00 +2°C° 0 mm 2 mps 720 mmHg 92%
03:00 +2°C° 0 mm 2 mps 720 mmHg 92%
04:00 +3°C° 0.3 mm 2 mps 719 mmHg 93%
05:00 +3°C° 0.3 mm 2 mps 719 mmHg 94%
06:00 +4°C° 0.3 mm 2 mps 718 mmHg 95%
07:00 +4°C° 1 mm 2 mps 718 mmHg 96%
08:00 +5°C° 1 mm 2 mps 718 mmHg 97%
09:00 +6°C° 1 mm 1 mps 717 mmHg 98%
10:00 +6°C° 0.4 mm 2 mps 717 mmHg 97%
11:00 +7°C° 0.4 mm 2 mps 717 mmHg 96%
12:00 +8°C° 0.4 mm 2 mps 717 mmHg 95%
13:00 +8°C° 0.2 mm 2 mps 717 mmHg 95%
14:00 +9°C° 0.2 mm 2 mps 717 mmHg 94%
15:00 +9°C° 0.2 mm 2 mps 717 mmHg 93%
16:00 +9°C° 0.6 mm 2 mps 717 mmHg 94%
17:00 +9°C° 0.6 mm 2 mps 718 mmHg 95%
18:00 +9°C° 0.6 mm 2 mps 718 mmHg 96%
19:00 +9°C° 0.1 mm 2 mps 718 mmHg 96%
20:00 +9°C° 0.1 mm 2 mps 719 mmHg 96%
21:00 +9°C° 0.1 mm 2 mps 719 mmHg 96%
22:00 +8°C° 0.1 mm 2 mps 719 mmHg 96%
23:00 +8°C° 0.1 mm 2 mps 719 mmHg 96%
Show more